Time,TemperatureF,DewpointF,PressureIn,WindDirection,WindDirectionDegrees,WindSpeedMPH,WindSpeedGustMPH,Humidity,HourlyPrecipIn,Conditions,Clouds,dailyrainin,SoftwareType,DateUTC
2013-07-14 00:00:00,64.9,61.0,29.85,NE,36,0.0,-999.0,87,-99.99,,,0.00,weatherlink.com 1.10,2013-07-14 07:00:00,
2013-07-14 00:15:00,64.8,61.0,29.85,NE,36,0.0,-999.0,87,-99.99,,,0.00,weatherlink.com 1.10,2013-07-14 07:15:00,
2013-07-14 00:30:00,64.8,61.0,29.85,NE,36,0.0,-999.0,87,-99.99,,,0.00,weatherlink.com 1.10,2013-07-14 07:30:00,
2013-07-14 00:45:00,64.8,61.0,29.85,NE,36,0.0,-999.0,87,-99.99,,,0.00,weatherlink.com 1.10,2013-07-14 07:45:00,
2013-07-14 01:00:00,64.6,61.0,29.84,NE,36,0.0,-999.0,88,-99.99,,,0.00,weatherlink.com 1.10,2013-07-14 08:00:00,
2013-07-14 01:15:00,64.4,61.0,29.84,NE,36,0.0,-999.0,88,-99.99,,,0.00,weatherlink.com 1.10,2013-07-14 08:15:00,
2013-07-14 01:30:00,64.1,61.0,29.84,NE,36,0.0,-999.0,88,-99.99,,,0.00,weatherlink.com 1.10,2013-07-14 08:30:00,
2013-07-14 01:45:00,63.9,60.0,29.84,NE,36,0.0,-999.0,88,-99.99,,,0.00,weatherlink.com 1.10,2013-07-14 08:45:00,
2013-07-14 02:00:00,63.8,61.0,29.83,NE,36,0.0,-999.0,89,-99.99,,,0.00,weatherlink.com 1.10,2013-07-14 09:00:00,
2013-07-14 02:15:00,63.5,60.0,29.83,NE,36,0.0,-999.0,89,-99.99,,,0.00,weatherlink.com 1.10,2013-07-14 09:15:00,
2013-07-14 02:30:00,63.5,60.0,29.83,NE,36,0.0,-999.0,89,-99.99,,,0.00,weatherlink.com 1.10,2013-07-14 09:30:00,
2013-07-14 02:45:00,63.2,60.0,29.83,NE,36,0.0,-999.0,89,-99.99,,,0.00,weatherlink.com 1.10,2013-07-14 09:45:00,
2013-07-14 03:00:00,63.4,60.0,29.83,NE,36,0.0,-999.0,89,-99.99,,,0.00,weatherlink.com 1.10,2013-07-14 10:00:00,
2013-07-14 03:15:00,63.4,61.0,29.83,NE,36,0.0,-999.0,90,-99.99,,,0.00,weatherlink.com 1.10,2013-07-14 10:15:00,
2013-07-14 03:30:00,63.1,60.0,29.83,NE,36,0.0,-999.0,90,-99.99,,,0.00,weatherlink.com 1.10,2013-07-14 10:30:00,
2013-07-14 03:45:00,62.8,60.0,29.83,NE,36,0.0,-999.0,90,-99.99,,,0.00,weatherlink.com 1.10,2013-07-14 10:45:00,
2013-07-14 04:00:00,62.9,60.0,29.83,NE,36,0.0,-999.0,90,-99.99,,,0.00,weatherlink.com 1.10,2013-07-14 11:00:00,
2013-07-14 04:15:00,63.2,60.0,29.83,NE,36,0.0,-999.0,90,-99.99,,,0.00,weatherlink.com 1.10,2013-07-14 11:15:00,
2013-07-14 04:30:00,63.6,61.0,29.83,NE,36,0.0,-999.0,91,-99.99,,,0.00,weatherlink.com 1.10,2013-07-14 11:30:00,
2013-07-14 04:45:00,64.3,62.0,29.83,NE,36,0.0,-999.0,91,-99.99,,,0.00,weatherlink.com 1.10,2013-07-14 11:45:00,
2013-07-14 05:00:00,64.5,62.0,29.83,NE,36,0.0,-999.0,91,-99.99,,,0.00,weatherlink.com 1.10,2013-07-14 12:00:00,
2013-07-14 05:15:00,64.6,62.0,29.84,NE,36,0.0,-999.0,91,-99.99,,,0.00,weatherlink.com 1.10,2013-07-14 12:15:00,
2013-07-14 05:30:00,64.8,62.0,29.84,NE,36,0.0,-999.0,91,-99.99,,,0.00,weatherlink.com 1.10,2013-07-14 12:30:00,
2013-07-14 05:45:00,64.9,62.0,29.84,NE,36,0.0,-999.0,91,-99.99,,,0.00,weatherlink.com 1.10,2013-07-14 12:45:00,
2013-07-14 06:00:00,65.1,62.0,29.84,NE,36,0.0,-999.0,90,-99.99,,,0.00,weatherlink.com 1.10,2013-07-14 13:00:00,
2013-07-14 06:15:00,65.2,62.0,29.85,SSW,202,0.0,-999.0,90,-99.99,,,0.00,weatherlink.com 1.10,2013-07-14 13:15:00,
2013-07-14 06:30:00,65.2,62.0,29.85,SSW,202,0.0,-999.0,90,-99.99,,,0.00,weatherlink.com 1.10,2013-07-14 13:30:00,
2013-07-14 06:45:00,65.1,62.0,29.85,South,184,0.0,-999.0,90,-99.99,,,0.00,weatherlink.com 1.10,2013-07-14 13:45:00,
2013-07-14 07:00:00,65.0,62.0,29.86,South,184,0.0,-999.0,90,-99.99,,,0.00,weatherlink.com 1.10,2013-07-14 14:00:00,
2013-07-14 07:15:00,65.0,62.0,29.86,South,184,0.0,-999.0,90,-99.99,,,0.00,weatherlink.com 1.10,2013-07-14 14:15:00,
2013-07-14 07:30:00,65.2,62.0,29.85,ESE,120,0.0,-999.0,90,-99.99,,,0.00,weatherlink.com 1.10,2013-07-14 14:30:00,
2013-07-14 07:45:00,65.6,63.0,29.86,ESE,120,0.0,-999.0,90,-99.99,,,0.00,weatherlink.com 1.10,2013-07-14 14:45:00,
2013-07-14 08:00:00,66.0,63.0,29.86,ESE,120,0.0,-999.0,89,-99.99,,,0.00,weatherlink.com 1.10,2013-07-14 15:00:00,
2013-07-14 08:15:00,66.7,63.0,29.86,ESE,120,0.0,-999.0,89,-99.99,,,0.00,weatherlink.com 1.10,2013-07-14 15:15:00,
2013-07-14 08:30:00,67.1,63.0,29.86,SW,215,0.0,-999.0,87,-99.99,,,0.00,weatherlink.com 1.10,2013-07-14 15:30:00,
2013-07-14 08:46:00,68.3,64.0,29.86,SSW,212,3.0,-999.0,87,-99.99,,,0.00,weatherlink.com 1.10,2013-07-14 15:46:00,
2013-07-14 09:01:00,69.6,65.0,29.86,SSW,194,0.0,-999.0,84,-99.99,,,0.00,weatherlink.com 1.10,2013-07-14 16:01:00,
2013-07-14 09:16:00,70.6,65.0,29.86,SSW,194,2.0,-999.0,83,-99.99,,,0.00,weatherlink.com 1.10,2013-07-14 16:16:00,
2013-07-14 09:31:00,71.2,65.0,29.86,SW,227,4.0,-999.0,80,-99.99,,,0.00,weatherlink.com 1.10,2013-07-14 16:31:00,
2013-07-14 09:46:00,72.0,66.0,29.86,ENE,58,1.0,-999.0,80,-99.99,,,0.00,weatherlink.com 1.10,2013-07-14 16:46:00,
2013-07-14 10:01:00,73.5,66.0,29.85,WSW,239,2.0,-999.0,76,-99.99,,,0.00,weatherlink.com 1.10,2013-07-14 17:01:00,
2013-07-14 10:16:00,74.1,65.0,29.85,NNW,346,0.0,-999.0,74,-99.99,,,0.00,weatherlink.com 1.10,2013-07-14 17:16:00,
2013-07-14 10:31:00,74.3,66.0,29.85,WSW,240,1.0,-999.0,74,-99.99,,,0.00,weatherlink.com 1.10,2013-07-14 17:31:00,
2013-07-14 10:46:00,74.6,65.0,29.85,SW,221,4.0,-999.0,72,-99.99,,,0.00,weatherlink.com 1.10,2013-07-14 17:46:00,
2013-07-14 11:01:00,77.8,66.0,29.85,North,10,2.0,-999.0,68,-99.99,,,0.00,weatherlink.com 1.10,2013-07-14 18:01:00,
2013-07-14 11:16:00,78.4,66.0,29.84,SSE,164,0.0,-999.0,66,-99.99,,,0.00,weatherlink.com 1.10,2013-07-14 18:16:00,
2013-07-14 11:31:00,78.5,67.0,29.84,SSW,213,2.0,-999.0,68,-99.99,,,0.00,weatherlink.com 1.10,2013-07-14 18:31:00,
2013-07-14 11:46:00,78.3,67.0,29.85,SW,218,2.0,-999.0,69,-99.99,,,0.00,weatherlink.com 1.10,2013-07-14 18:46:00,
2013-07-14 12:01:00,79.1,67.0,29.84,WSW,239,0.0,-999.0,66,-99.99,,,0.00,weatherlink.com 1.10,2013-07-14 19:01:00,
2013-07-14 12:16:00,81.5,67.0,29.83,WNW,299,5.0,-999.0,62,-99.99,,,0.00,weatherlink.com 1.10,2013-07-14 19:16:00,
2013-07-14 12:31:00,82.6,67.0,29.83,SSW,212,4.0,-999.0,60,-99.99,,,0.00,weatherlink.com 1.10,2013-07-14 19:31:00,
2013-07-14 12:46:00,81.6,67.0,29.83,SSW,202,7.0,-999.0,62,-99.99,,,0.00,weatherlink.com 1.10,2013-07-14 19:46:00,
2013-07-14 13:01:00,81.3,67.0,29.82,South,180,5.0,-999.0,62,-99.99,,,0.00,weatherlink.com 1.10,2013-07-14 20:01:00,
2013-07-14 13:16:00,81.5,67.0,29.82,SW,226,6.0,-999.0,61,-99.99,,,0.00,weatherlink.com 1.10,2013-07-14 20:16:00,
2013-07-14 13:31:00,82.4,67.0,29.81,SW,227,4.0,-999.0,59,-99.99,,,0.00,weatherlink.com 1.10,2013-07-14 20:31:00,
2013-07-14 13:46:00,82.5,66.0,29.81,South,169,5.0,-999.0,57,-99.99,,,0.00,weatherlink.com 1.10,2013-07-14 20:46:00,
2013-07-14 14:01:00,82.5,66.0,29.81,South,175,4.0,-999.0,57,-99.99,,,0.00,weatherlink.com 1.10,2013-07-14 21:01:00,
2013-07-14 14:16:00,82.6,66.0,29.80,SSW,212,9.0,-999.0,57,-99.99,,,0.00,weatherlink.com 1.10,2013-07-14 21:16:00,
2013-07-14 14:31:00,82.3,65.0,29.80,SSW,205,4.0,-999.0,57,-99.99,,,0.00,weatherlink.com 1.10,2013-07-14 21:31:00,
2013-07-14 14:46:00,81.7,66.0,29.80,West,277,6.0,-999.0,59,-99.99,,,0.00,weatherlink.com 1.10,2013-07-14 21:46:00,
2013-07-14 15:01:00,82.0,66.0,29.79,SW,236,9.0,-999.0,58,-99.99,,,0.00,weatherlink.com 1.10,2013-07-14 22:01:00,
2013-07-14 15:16:00,81.3,66.0,29.79,SW,225,5.0,-999.0,61,-99.99,,,0.00,weatherlink.com 1.10,2013-07-14 22:16:00,
2013-07-14 15:31:00,80.9,66.0,29.79,SSW,211,4.0,-999.0,60,-99.99,,,0.00,weatherlink.com 1.10,2013-07-14 22:31:00,
2013-07-14 15:46:00,82.2,66.0,29.77,SW,225,3.0,-999.0,58,-99.99,,,0.00,weatherlink.com 1.10,2013-07-14 22:46:00,
2013-07-14 16:01:00,83.4,66.0,29.77,SSW,211,2.0,-999.0,55,-99.99,,,0.00,weatherlink.com 1.10,2013-07-14 23:01:00,
2013-07-14 16:16:00,84.7,65.0,29.76,SSW,213,5.0,-999.0,52,-99.99,,,0.00,weatherlink.com 1.10,2013-07-14 23:16:00,
2013-07-14 16:31:00,83.7,65.0,29.76,SW,221,1.0,-999.0,53,-99.99,,,0.00,weatherlink.com 1.10,2013-07-14 23:31:00,
2013-07-14 16:46:00,83.9,64.0,29.76,SSW,201,3.0,-999.0,51,-99.99,,,0.00,weatherlink.com 1.10,2013-07-14 23:46:00,
2013-07-14 17:02:00,83.4,63.0,29.75,SSW,202,11.0,-999.0,50,-99.99,,,0.00,weatherlink.com 1.10,2013-07-15 00:02:00,
2013-07-14 17:17:00,83.8,63.0,29.75,South,178,5.0,-999.0,49,-99.99,,,0.00,weatherlink.com 1.10,2013-07-15 00:17:00,
2013-07-14 17:32:00,83.9,66.0,29.75,West,264,0.0,-999.0,56,-99.99,,,0.00,weatherlink.com 1.10,2013-07-15 00:32:00,
2013-07-14 17:47:00,84.0,67.0,29.75,NNW,344,2.0,-999.0,57,-99.99,,,0.00,weatherlink.com 1.10,2013-07-15 00:47:00,
2013-07-14 18:02:00,84.1,67.0,29.75,NNW,327,0.0,-999.0,56,-99.99,,,0.00,weatherlink.com 1.10,2013-07-15 01:02:00,
2013-07-14 18:17:00,83.0,67.0,29.75,WSW,250,0.0,-999.0,58,-99.99,,,0.00,weatherlink.com 1.10,2013-07-15 01:17:00,
2013-07-14 18:32:00,82.4,66.0,29.75,NW,317,3.0,-999.0,58,-99.99,,,0.00,weatherlink.com 1.10,2013-07-15 01:32:00,
2013-07-14 18:47:00,80.6,66.0,29.75,NW,319,0.0,-999.0,61,-99.99,,,0.00,weatherlink.com 1.10,2013-07-15 01:47:00,
2013-07-14 19:02:00,79.9,66.0,29.75,West,261,0.0,-999.0,62,-99.99,,,0.00,weatherlink.com 1.10,2013-07-15 02:02:00,
2013-07-14 19:17:00,78.1,64.0,29.76,South,189,3.0,-999.0,62,-99.99,,,0.00,weatherlink.com 1.10,2013-07-15 02:17:00,
2013-07-14 19:32:00,76.1,63.0,29.76,SW,223,2.0,-999.0,65,-99.99,,,0.00,weatherlink.com 1.10,2013-07-15 02:32:00,
2013-07-14 19:47:00,74.5,63.0,29.76,South,183,5.0,-999.0,67,-99.99,,,0.00,weatherlink.com 1.10,2013-07-15 02:47:00,
2013-07-14 20:02:00,73.1,64.0,29.77,SW,215,6.0,-999.0,72,-99.99,,,0.00,weatherlink.com 1.10,2013-07-15 03:02:00,
2013-07-14 20:17:00,71.5,64.0,29.77,SW,230,2.0,-999.0,77,-99.99,,,0.00,weatherlink.com 1.10,2013-07-15 03:17:00,
2013-07-14 20:32:00,70.3,64.0,29.77,SW,223,3.0,-999.0,81,-99.99,,,0.00,weatherlink.com 1.10,2013-07-15 03:32:00,
2013-07-14 20:47:00,69.9,64.0,29.77,SW,219,4.0,-999.0,82,-99.99,,,0.00,weatherlink.com 1.10,2013-07-15 03:47:00,
2013-07-14 21:02:00,69.6,64.0,29.77,SW,219,4.0,-999.0,83,-99.99,,,0.00,weatherlink.com 1.10,2013-07-15 04:02:00,
2013-07-14 21:17:00,69.2,64.0,29.78,SSW,205,2.0,-999.0,84,-99.99,,,0.00,weatherlink.com 1.10,2013-07-15 04:17:00,
2013-07-14 21:32:00,68.9,64.0,29.79,SW,215,2.0,-999.0,84,-99.99,,,0.00,weatherlink.com 1.10,2013-07-15 04:32:00,
2013-07-14 21:47:00,68.7,64.0,29.79,South,178,2.0,-999.0,84,-99.99,,,0.00,weatherlink.com 1.10,2013-07-15 04:47:00,
2013-07-14 22:02:00,68.5,64.0,29.79,SSW,210,0.0,-999.0,84,-99.99,,,0.00,weatherlink.com 1.10,2013-07-15 05:02:00,
2013-07-14 22:17:00,68.4,64.0,29.79,SW,215,2.0,-999.0,85,-99.99,,,0.00,weatherlink.com 1.10,2013-07-15 05:17:00,
2013-07-14 22:32:00,68.4,64.0,29.80,SSW,206,2.0,-999.0,85,-99.99,,,0.00,weatherlink.com 1.10,2013-07-15 05:32:00,
2013-07-14 22:47:00,68.3,64.0,29.80,SSW,196,0.0,-999.0,86,-99.99,,,0.00,weatherlink.com 1.10,2013-07-15 05:47:00,
2013-07-14 23:02:00,68.1,64.0,29.80,SSW,205,3.0,-999.0,87,-99.99,,,0.00,weatherlink.com 1.10,2013-07-15 06:02:00,
2013-07-14 23:17:00,67.9,64.0,29.79,SSW,205,0.0,-999.0,87,-99.99,,,0.00,weatherlink.com 1.10,2013-07-15 06:17:00,
2013-07-14 23:32:00,68.0,64.0,29.80,SW,214,0.0,-999.0,88,-99.99,,,0.00,weatherlink.com 1.10,2013-07-15 06:32:00,
2013-07-14 23:47:00,67.9,64.0,29.80,SW,217,0.0,-999.0,88,-99.99,,,0.00,weatherlink.com 1.10,2013-07-15 06:47:00,